Content
SEND FEEDBACK

Daily
Averages
Monthly
Summary
Czech Republic

PRAGUE, CZECH REPUBLIC


Home > Europe > Czech Republic
Elevation: 1184 feet     Latitude: 50 06N     Longitude: 014 15E

WEATHER
 
SELECT A DAY
Number of Records: 321,057;   Date Range: 7/1/96 - 8/31/14
 
SHARE

PRINT THIS DATA

[ ← Previous Day ]
WEATHER ALMANAC - SEPTEMBER 1, 2013
[ Next Day → ]
[ °C ]   °F
Weather ElementAverageHighLow
Temperature56.8 °F62.6 °F (2:30 pm)50 °F (10:00 pm)
Dewpoint46.1 °F57.2 °F (2:30 am)39.2 °F (4:00 pm)
Humidity69.2 %100 % (4:00 am)39 % (2:00 pm)
Barometer30.20 in30.24 in (9:30 am)30.12 in (12:30 am)
Wind Speed9.7 mph16.1 mph (3:30 pm)
Weather ElementAverage
Visibility7.7 mi
Wind DirectionWNW (307.6 °)

Weather ElementTotal
Precipitation---
Heating Degree Days8.7 (Base 65)
Growing Degree Days6.3 (Base 50)
Averaged from 51 records on September 1, 2013
WEATHER CONDITIONS BREAKOUT
WIND DIRECTION BREAKOUT
WEATHER BY HOUR - SEPTEMBER 1, 2013
[ °C ]   °F
Local TimeTemperatureDewpointHumidityBarometerVisibilityWind DirectionWind SpeedGust SpeedPrecipitationEventsConditions
12:30 AM60.8 °F55.4 °F82 %30.12 in6.2 miWNW (300°)10.4 mphRainLight Rain
1:00 AM59.0 °F55.4 °F88 %30.12 in6.2 miWNW (290°)4.6 mphRainLight Rain
1:30 AM59.0 °F55.4 °F88 %30.12 in6.2 miWSW (250°)6.9 mphRainLight Rain
2:00 AM59.0 °F55.4 °F88 %30.12 in6.2 miWest (260°)5.8 mphMostly Cloudy
2:30 AM59.0 °F57.2 °F94 %30.12 in6.2 miWNW (300°)4.6 mphMostly Cloudy
3:00 AM59.0 °F55.4 °F88 %30.12 in3.1 miNNW (330°)10.4 mphRainRain
3:30 AM57.2 °F55.4 °F94 %30.12 in6.2 miNNW (340°)12.7 mphRainRain
4:00 AM55.4 °F55.4 °F100 %30.12 in5.0 miNW (310°)9.2 mphRainLight Rain
4:30 AM55.4 °F55.4 °F100 %30.15 in6.2 miNW (310°)8.1 mphRainLight Rain
5:00 AM55.4 °F53.6 °F94 %30.15 in6.2 miNW (310°)9.2 mphRainLight Rain
5:16 AM55.4 °F53.6 °F94 %30.15 in6.2 miNNW (340°)9.2 mphMostly Cloudy
5:30 AM55.4 °F53.6 °F94 %30.15 in6.2 miNW (320°)10.4 mphMostly Cloudy
6:00 AM55.4 °F53.6 °F94 %30.15 in6.2 miNNW (330°)13.8 mphRainLight Rain
6:30 AM53.6 °F50.0 °F88 %30.18 in6.2 miNorth (350°)11.5 mphMostly Cloudy
7:00 AM53.6 °F48.2 °F82 %30.18 in6.2 miNNW (330°)10.4 mphMostly Cloudy
7:30 AM51.8 °F46.4 °F82 %30.18 in6.2 miNNW (340°)9.2 mphPartly Cloudy
8:00 AM51.8 °F46.4 °F82 %30.21 in6.2 miNW (320°)6.9 mphPartly Cloudy
8:30 AM53.6 °F48.2 °F82 %30.21 in6.2 miNW (310°)8.1 mphPartly Cloudy
9:00 AM53.6 °F48.2 °F82 %30.21 in6.2 miNW (320°)9.2 mphPartly Cloudy
9:30 AM53.6 °F44.6 °F72 %30.24 in6.2 miNW (320°)10.4 mphPartly Cloudy
10:00 AM55.4 °F44.6 °F67 %30.24 in6.2 miNNW (330°)9.2 mphPartly Cloudy
10:30 AM55.4 °F44.6 °F67 %30.24 in6.2 miWNW (300°)11.5 mphScattered Clouds
11:00 AM57.2 °F44.6 °F63 %30.24 in6.2 miNNW (330°)10.4 mphMostly Cloudy
11:30 AM57.2 °F42.8 °F59 %30.24 in6.2 miNW (320°)10.4 mphMostly Cloudy
12:00 PM57.2 °F44.6 °F63 %30.24 in6.2 miNW (320°)12.7 mphMostly Cloudy
12:30 PM57.2 °F42.8 °F59 %30.24 in6.2 miNW (320°)11.5 mphScattered Clouds
1:00 PM59.0 °F42.8 °F55 %30.24 in6.2 miWNW (290°)10.4 mphPartly Cloudy
1:30 PM60.8 °F42.8 °F52 %30.21 in6.2 miWNW (300°)13.8 mphScattered Clouds
2:00 PM59.0 °F41.0 °F39 %30.23 in31.0 miNW (320°)11.2 mphMostly Cloudy
2:00 PM59.0 °F41.0 °F51 %30.24 inNW (320°)12.7 mphClear
2:30 PM62.6 °F41.0 °F45 %30.21 inNW (310°)13.8 mphClear
3:00 PM62.6 °F41.0 °F45 %30.24 in6.2 miNNW (330°)13.8 mphPartly Cloudy
3:30 PM60.8 °F41.0 °F48 %30.21 inNW (310°)16.1 mphClear
4:00 PM59.0 °F39.2 °F48 %30.21 inNW (320°)13.8 mphClear
4:05 PM62.6 °F41.0 °F45 %30.21 inNW (320°)12.7 mphClear
4:30 PM62.6 °F39.2 °F42 %30.21 inNW (310°)11.5 mphClear
5:00 PM60.8 °F41.0 °F48 %30.21 inNW (320°)9.2 mphClear
5:30 PM62.6 °F41.0 °F45 %30.21 inWNW (300°)10.4 mphClear
6:00 PM60.8 °F39.2 °F45 %30.21 inNW (310°)11.5 mphClear
6:30 PM59.0 °F41.0 °F51 %30.21 inNNW (330°)8.1 mphClear
7:00 PM59.0 °F41.0 °F51 %30.21 inNW (320°)12.7 mphClear
7:30 PM57.2 °F41.0 °F55 %30.21 inNW (320°)8.1 mphClear
8:00 PM55.0 °F43.0 °F53 %30.23 in31.0 miNW (310°)4.5 mphPartly Cloudy
8:00 PM55.4 °F42.8 °F63 %30.21 inNW (320°)4.6 mphClear
8:30 PM53.6 °F42.8 °F67 %30.21 inWNW (290°)5.8 mphClear
9:00 PM55.4 °F42.8 °F63 %30.24 inWest (280°)5.8 mphClear
9:30 PM51.8 °F42.8 °F71 %30.24 inWest (270°)6.9 mphClear
10:00 PM50.0 °F42.8 °F76 %30.24 inWSW (250°)6.9 mphClear
10:30 PM51.8 °F42.8 °F71 %30.24 inWSW (250°)8.1 mphClear
11:00 PM50.0 °F42.8 °F76 %30.24 inWSW (250°)6.9 mphClear
11:30 PM50.0 °F42.8 °F76 %30.24 inWSW (240°)6.9 mphClear
Hourly data recorded from LKPR, located miles away from Prague, Czech Republic







STORIES FROM OUR PARTNERS